Temp
6 6 6 6 6 6 6 4 3 3 4 4 4 4 4 4 4 4 4 4 4 4 5 4 5 5 4 4 4 5 4 4
4 4 4 4 4 4 4 4 2 2 2 3 3 4 4 4 4 4 4 4 4 4 4 5 4 5 5 4 4 4 4 4
3 3 3 3 3 3 2 2 1 0 1 2 2 3 3 3 3 3 3 4 4 4 4 4 4 4 4 4 4 4 4 3
2 1 1 1 0 0 0 -1 -1 -0 1 1 1 1 2 2 2 3 3 4 4 4 4 4 4 4 4 5 4 4 5 4
0 -1 -2 -2 -2 -3 -3 -2 -2 -1 -0 0 -0 0 1 2 2 3 3 3 3 3 3 3 4 4 4 4 5 5 5 5
-2 -3 -3 -3 -3 -3 -2 -2 -1 -1 -1 -1 -1 -1 -1 1 2 2 3 2 3 3 3 3 3 4 4 4 4 5 5 5
-4 -4 -4 -3 -3 -3 -3 -2 -2 -2 -1 -1 -1 -1 -2 -1 0 1 1 2 2 3 3 3 3 3 4 4 4 4 5 5
-3 -3 -3 -3 -2 -3 -3 -3 -3 -2 -2 -2 -2 -3 -4 -3 -1 -0 1 2 2 3 3 3 3 3 3 3 4 4 4 4
-3 -4 -4 -4 -4 -4 -4 -5 -5 -4 -4 -4 -4 -4 -4 -2 -1 0 1 2 2 2 3 3 2 3 3 3 4 4 4 4
-4 -4 -4 -4 -4 -4 -4 -4 -4 -4 -5 -5 -4 -3 -2 -2 -2 0 0 2 2 2 2 2 3 3 3 3 3 3 3 3
-3 -3 -4 -4 -4 -4 -4 -4 -4 -4 -4 -4 -3 -3 -2 -1 -1 0 1 0 1 1 2 2 1 2 2 2 2 3 3 3
-4 -4 -4 -4 -4 -4 -4 -4 -4 -4 -4 -3 -3 -3 -2 -2 -1 -1 -1 -1 -1 -0 0 0 0 1 1 2 2 2 2 3
-4 -4 -4 -4 -4 -4 -5 -5 -5 -4 -5 -5 -4 -4 -3 -3 -3 -3 -2 -2 -2 -2 -1 -1 -0 0 1 1 1 2 2 2
-4 -4 -4 -5 -5 -5 -5 -6 -6 -6 -6 -6 -6 -6 -5 -5 -4 -4 -4 -4 -4 -3 -2 -2 -1 -1 -1 -0 0 0 1 1
-5 -5 -5 -5 -5 -6 -6 -6 -7 -7 -7 -7 -7 -7 -6 -6 -6 -5 -5 -5 -4 -4 -4 -3 -3 -2 -3 -2 -1 -1 -1 -1
-5 -5 -5 -6 -6 -6 -6 -7 -7 -8 -8 -8 -8 -7 -7 -6 -6 -6 -5 -5 -4 -4 -4 -4 -5 -4 -4 -4 -4 -3 -2 -2
-6 -6 -6 -6 -6 -7 -7 -8 -8 -8 -8 -8 -8 -8 -8 -7 -7 -6 -6 -6 -5 -5 -5 -5 -5 -5 -5 -5 -5 -5 -4 -4
-6 -7 -7 -7 -7 -8 -8 -8 -9 -9 -9 -9 -9 -8 -8 -9 -7 -7 -7 -6 -6 -5 -6 -5 -5 -5 -5 -5 -5 -5 -5 -4
-7 -7 -7 -7 -8 -9 -9 -9 -9 -9 -9 -9 -9 -10 -9 -8 -7 -7 -7 -6 -6 -6 -6 -6 -6 -6 -5 -5 -5 -5 -5 -4
Height
3085 3083 3081 3079 3077 3075 3073 3074 3076 3080 3083 3085 3087 3088 3091 3093 3094 3095 3095 3096 3097 3096 3095 3095 3094 3095 3096 3097 3098 3100 3101 3092
3079 3078 3077 3074 3072 3070 3069 3068 3069 3072 3075 3077 3079 3081 3083 3084 3085 3087 3087 3088 3088 3088 3087 3086 3085 3086 3087 3088 3090 3091 3091 3092
3075 3073 3071 3070 3068 3066 3064 3064 3064 3065 3067 3070 3072 3073 3075 3077 3078 3079 3079 3079 3078 3078 3077 3076 3075 3076 3077 3078 3079 3081 3081 3081
3068 3066 3064 3061 3061 3061 3059 3059 3061 3061 3062 3063 3065 3067 3069 3069 3072 3071 3071 3070 3069 3069 3067 3066 3065 3066 3066 3067 3067 3068 3071 3071
3061 3059 3059 3058 3056 3056 3056 3056 3056 3057 3058 3057 3060 3061 3062 3062 3063 3064 3063 3062 3061 3060 3059 3058 3057 3056 3056 3057 3057 3056 3057 3060
3057 3055 3055 3054 3053 3053 3052 3050 3051 3051 3050 3051 3053 3051 3054 3056 3055 3055 3056 3056 3052 3051 3049 3049 3048 3047 3047 3047 3047 3046 3046 3047
3053 3051 3050 3049 3048 3046 3045 3045 3043 3041 3042 3044 3044 3043 3044 3049 3049 3048 3049 3047 3045 3042 3039 3039 3038 3036 3035 3036 3036 3036 3036 3035
3051 3048 3047 3045 3043 3041 3039 3039 3038 3037 3034 3035 3036 3034 3037 3037 3039 3040 3040 3038 3035 3034 3031 3030 3028 3026 3025 3024 3025 3026 3026 3025
3051 3048 3046 3043 3040 3038 3034 3033 3031 3031 3030 3031 3030 3029 3030 3031 3031 3033 3031 3028 3027 3024 3022 3020 3019 3017 3015 3014 3015 3014 3015 3015
3050 3048 3046 3043 3041 3039 3036 3032 3030 3028 3028 3027 3029 3029 3027 3025 3025 3023 3019 3017 3016 3015 3013 3011 3009 3007 3005 3005 3005 3005 3004 3005
3048 3046 3044 3042 3039 3037 3034 3031 3028 3026 3023 3023 3023 3022 3020 3018 3016 3013 3011 3009 3007 3006 3003 3000 2998 2997 2996 2995 2994 2994 2995 2995
3047 3045 3043 3040 3037 3034 3031 3027 3024 3022 3019 3018 3017 3016 3014 3011 3009 3008 3006 3003 3000 2998 2994 2991 2988 2988 2986 2985 2985 2984 2984 2985
3044 3042 3040 3037 3034 3030 3027 3023 3021 3018 3015 3014 3011 3009 3007 3005 3004 3002 3000 2997 2994 2991 2987 2983 2981 2978 2977 2976 2975 2974 2974 2975
3040 3039 3036 3033 3030 3027 3023 3020 3017 3014 3012 3009 3008 3005 3004 3002 3000 2997 2994 2992 2989 2985 2982 2977 2974 2971 2968 2966 2966 2966 2966 2966
3035 3034 3032 3030 3026 3023 3020 3017 3014 3012 3009 3007 3005 3003 3001 3000 2998 2996 2994 2991 2988 2984 2980 2975 2971 2967 2963 2960 2959 2959 2957 2957
3031 3030 3028 3025 3022 3019 3016 3013 3011 3008 3007 3006 3003 3000 2998 2997 2996 2995 2993 2990 2988 2984 2980 2978 2974 2969 2962 2958 2955 2953 2951 2949
3025 3025 3023 3021 3018 3016 3013 3011 3009 3007 3006 3004 3002 3000 2998 2996 2995 2994 2993 2991 2988 2984 2981 2977 2974 2969 2964 2959 2956 2952 2948 2945
3020 3020 3018 3016 3014 3012 3011 3010 3008 3007 3005 3004 3001 2999 2997 2996 2997 2995 2993 2991 2987 2984 2981 2977 2973 2969 2965 2961 2956 2951 2947 2943
3015 3015 3013 3012 3010 3010 3009 3008 3007 3006 3005 3003 3001 2999 2999 2997 2996 2995 2993 2990 2986 2983 2981 2977 2974 2970 2966 2961 2956 2950 2946 2940
Wind_Speed
26 28 31 33 33 33 33 30 25 20 21 28 31 31 32 30 28 27 27 27 31 32 33 35 36 38 39 41 41 44 50 52
22 23 26 27 29 30 29 29 24 22 24 29 32 35 35 33 31 30 29 30 32 36 37 34 35 36 40 41 43 43 46 47
23 22 23 24 24 25 25 25 26 27 29 33 36 38 36 33 32 30 30 32 36 38 35 34 34 35 36 39 43 43 43 44
25 25 24 22 20 21 22 24 27 30 34 34 36 36 36 31 30 28 30 33 37 39 35 33 34 35 36 38 41 44 46 47
24 24 24 22 24 26 26 25 28 32 36 36 35 29 34 30 28 30 29 31 38 38 35 33 32 33 35 37 39 42 45 46
18 20 25 25 25 24 32 30 28 31 35 40 38 38 30 25 27 29 29 35 38 40 38 38 37 35 34 35 37 39 41 44
17 19 22 26 31 30 36 34 32 32 41 40 42 32 27 22 27 27 31 37 37 38 41 40 37 36 35 36 36 37 38 40
14 15 17 18 20 26 30 30 34 36 32 35 30 26 25 27 30 28 36 34 36 36 38 37 37 35 35 36 37 36 37 37
13 13 15 16 16 18 19 19 16 23 25 23 27 25 30 29 26 33 35 31 35 37 38 40 38 36 35 35 36 37 37 36
9 11 9 11 13 13 16 16 16 11 11 13 18 20 20 22 29 31 29 32 35 36 39 38 37 37 35 35 35 35 37 36
5 8 12 14 17 18 17 17 15 16 14 17 21 25 24 23 25 27 32 34 33 35 35 36 32 33 35 35 33 33 35 35
9 11 14 17 20 22 23 20 20 18 18 19 20 24 27 24 24 25 29 30 30 30 30 30 30 31 32 34 33 32 32 33
13 15 16 18 22 26 23 19 18 18 20 19 17 19 20 21 21 21 23 23 23 24 25 26 28 29 29 30 29 30 33 32
16 18 20 22 24 24 21 17 16 18 17 16 15 12 15 15 15 15 15 16 17 18 19 20 23 24 23 24 25 26 27 30
19 19 21 24 26 22 18 17 16 13 13 12 10 9 8 8 6 6 7 10 15 17 18 18 17 16 16 16 17 20 22 25
20 21 23 26 25 20 18 16 15 12 10 9 10 10 7 4 3 5 8 10 10 11 14 16 20 20 20 18 15 15 19 23
22 22 24 25 23 19 15 12 10 9 9 10 9 7 5 2 7 6 8 10 11 12 12 13 15 19 22 23 24 22 18 15
22 22 24 23 20 16 11 8 6 6 7 6 5 2 4 8 7 8 10 11 13 15 16 17 18 19 19 18 18 20 21 23
20 21 21 20 16 12 8 4 4 6 6 2 6 11 8 7 9 9 11 11 12 14 16 17 19 19 19 20 20 20 18 19
Wind_Direction
283 282 283 283 284 284 285 286 283 272 261 245 248 248 251 259 266 272 277 282 287 294 297 281 268 267 265 258 255 253 253 258
283 280 279 283 284 282 282 282 281 273 256 247 249 248 249 252 258 263 272 280 290 294 295 284 273 264 261 262 262 259 258 256
291 288 284 282 280 279 277 276 273 261 255 249 247 249 244 248 255 264 272 280 287 298 292 284 277 271 265 261 260 260 260 260
294 294 295 298 293 280 273 269 263 259 252 247 244 244 248 251 260 265 273 280 289 292 288 284 279 275 272 268 265 263 260 260
302 298 303 301 305 291 285 271 265 265 254 244 242 241 245 244 253 266 272 281 287 289 286 284 280 275 272 268 266 265 264 262
314 301 300 290 293 290 289 259 263 259 248 252 249 235 233 251 257 260 264 277 285 282 285 280 277 276 273 269 265 263 263 264
332 318 298 291 278 288 280 269 255 258 256 253 252 257 253 261 255 265 268 275 279 277 283 280 274 274 271 272 269 266 263 262
337 331 326 320 312 292 284 277 261 258 258 264 266 254 247 256 259 258 271 274 276 275 278 278 274 274 273 272 272 269 268 264
10 14 359 2 4 353 327 315 296 274 265 264 259 244 242 247 253 270 272 274 276 278 277 277 275 272 273 272 273 272 270 267
335 335 351 3 3 345 327 335 296 294 309 301 295 283 277 276 273 275 285 286 284 281 277 274 272 273 273 271 270 269 270 268
334 338 339 339 342 337 326 315 301 292 283 281 286 291 291 289 289 288 292 290 289 285 282 278 276 271 271 273 271 269 267 265
301 312 320 324 328 326 321 309 302 300 293 290 285 282 292 297 294 293 290 292 291 289 286 283 283 278 272 271 273 271 269 264
286 299 308 317 321 324 321 317 312 307 308 302 297 299 302 303 301 302 301 302 305 299 295 293 289 285 279 275 273 271 270 267
281 294 306 316 319 320 315 318 317 318 317 315 314 314 313 312 315 323 327 335 338 334 320 309 301 297 294 287 278 270 268 268
276 288 302 310 316 317 309 311 319 324 322 324 326 327 325 320 332 0 20 36 38 36 24 14 3 343 332 313 292 276 268 266
273 284 297 305 311 311 305 308 313 325 334 330 325 318 317 317 10 28 31 32 32 31 34 34 35 34 32 21 353 315 289 276
274 282 292 299 301 302 302 301 305 317 323 325 320 309 311 349 43 22 22 17 16 18 12 9 15 21 34 42 40 29 10 331
268 278 289 293 295 296 291 286 304 318 331 326 311 340 66 50 26 25 23 21 19 14 12 9 7 6 4 6 17 24 29 23
262 276 283 285 287 281 268 272 322 341 330 341 65 56 31 32 28 18 11 13 13 10 5 3 1 359 358 358 358 356 2 13